| time (UTC) | temp F | wind direction | speed MPH | gust MPH | rain 1hr in | rain 24hr in | rain mn in | humidity % | barometer mb |
| 20260507051518 | 54 | 0.0 | 1.0 | 0.00 | 0.00 | 0.00 | 82 | 1019.9 | |
| 20260507050518 | 54 | 0.0 | 3.0 | 0.00 | 0.00 | 0.00 | 81 | 1019.9 | |
| 20260507045519 | 54 | 0.0 | 1.0 | 0.00 | 0.00 | 0.00 | 82 | 1019.9 | |
| 20260507044519 | 54 | 0.0 | 1.0 | 0.00 | 0.00 | 0.00 | 81 | 1019.8 | |
| 20260507043518 | 55 | 270 | 1.0 | 5.0 | 0.00 | 0.00 | 0.00 | 81 | 1019.9 |
| 20260507042518 | 55 | 0.0 | 3.0 | 0.00 | 0.00 | 0.00 | 81 | 1019.9 | |
| 20260507041518 | 55 | 0.0 | 1.0 | 0.00 | 0.00 | 0.00 | 81 | 1019.9 | |
| 20260507040518 | 55 | 0.0 | 3.0 | 0.00 | 0.00 | 0.00 | 80 | 1019.8 | |
| 20260507035518 | 55 | 0.0 | 0.0 | 0.00 | 0.00 | 0.00 | 80 | 1019.6 | |
| 20260507034558 | 56 | 0.0 | 1.0 | 0.00 | 0.00 | 0.00 | 80 | 1019.6 | |
| 20260507033518 | 56 | 0.0 | 2.0 | 0.00 | 0.00 | 0.00 | 79 | 1019.6 | |
| 20260507032539 | 56 | 0.0 | 0.0 | 0.00 | 0.00 | 0.00 | 79 | 1019.4 | |
| 20260507031518 | 56 | 0.0 | 0.0 | 0.00 | 0.00 | 0.00 | 79 | 1019.3 | |
| 20260507030518 | 56 | 0.0 | 3.0 | 0.00 | 0.00 | 0.00 | 78 | 1019.2 | |
| 20260507025518 | 57 | 0.0 | 2.0 | 0.00 | 0.00 | 0.00 | 77 | 1019.2 | |
| 20260507024518 | 57 | 270 | 1.0 | 3.0 | 0.00 | 0.00 | 0.00 | 77 | 1019.2 |
| 20260507023518 | 57 | 0.0 | 3.0 | 0.00 | 0.00 | 0.00 | 76 | 1019.1 | |
| 20260507022518 | 57 | 0.0 | 3.0 | 0.00 | 0.00 | 0.00 | 76 | 1019.0 | |
| 20260507021518 | 57 | 0.0 | 4.0 | 0.00 | 0.00 | 0.00 | 76 | 1019.0 | |
| 20260507020518 | 58 | 0.0 | 1.0 | 0.00 | 0.00 | 0.00 | 75 | 1019.1 | |
| 20260507015518 | 58 | 0.0 | 3.0 | 0.00 | 0.00 | 0.00 | 75 | 1019.1 | |
| 20260507014517 | 59 | 0.0 | 2.0 | 0.00 | 0.00 | 0.00 | 73 | 1019.1 | |
| 20260507013518 | 59 | 0.0 | 2.0 | 0.00 | 0.00 | 0.00 | 73 | 1019.0 | |
| 20260507012517 | 60 | 270 | 1.0 | 6.0 | 0.00 | 0.00 | 0.00 | 72 | 1018.9 |
| 20260507011517 | 60 | 248 | 1.0 | 5.0 | 0.00 | 0.00 | 0.00 | 70 | 1019.1 |
| 20260507010525 | 62 | 270 | 1.0 | 5.0 | 0.00 | 0.00 | 0.00 | 68 | 1019.0 |
| 20260507005518 | 62 | 270 | 1.0 | 6.0 | 0.00 | 0.00 | 0.00 | 69 | 1019.1 |
| 20260507004519 | 61 | 270 | 1.0 | 4.0 | 0.00 | 0.00 | 0.00 | 73 | 1019.2 |
| 20260507003518 | 60 | 293 | 1.0 | 6.0 | 0.00 | 0.00 | 0.00 | 73 | 1019.1 |
| 20260507002518 | 59 | 203 | 1.0 | 5.0 | 0.00 | 0.00 | 0.00 | 73 | 1019.1 |
| 20260507001517 | 59 | 0.0 | 1.0 | 0.00 | 0.00 | 0.00 | 73 | 1019.2 | |
| 20260507000518 | 60 | 315 | 1.0 | 5.0 | 0.00 | 0.00 | 0.00 | 72 | 1019.1 |
| 20260506235518 | 60 | 0.0 | 2.0 | 0.00 | 0.00 | 0.00 | 72 | 1019.1 | |
| 20260506234518 | 60 | 0.0 | 3.0 | 0.00 | 0.00 | 0.00 | 71 | 1019.1 | |
| 20260506233518 | 60 | 270 | 1.0 | 3.0 | 0.00 | 0.00 | 0.00 | 71 | 1019.1 |
| 20260506232518 | 60 | 293 | 1.0 | 5.0 | 0.00 | 0.00 | 0.00 | 72 | 1019.1 |
| 20260506231537 | 60 | 293 | 1.0 | 5.0 | 0.00 | 0.00 | 0.00 | 70 | 1019.1 |
| 20260506230517 | 61 | 270 | 1.0 | 5.0 | 0.00 | 0.00 | 0.00 | 69 | 1019.3 |
| 20260506225518 | 61 | 0.0 | 3.0 | 0.00 | 0.00 | 0.00 | 71 | 1019.2 | |
| 20260506224518 | 61 | 293 | 1.0 | 4.0 | 0.00 | 0.00 | 0.00 | 70 | 1019.2 |
| 20260506223518 | 60 | 270 | 1.0 | 3.0 | 0.00 | 0.00 | 0.00 | 71 | 1019.2 |
| 20260506222518 | 60 | 270 | 1.0 | 5.0 | 0.00 | 0.00 | 0.00 | 71 | 1019.4 |
| 20260506221518 | 60 | 0.0 | 3.0 | 0.00 | 0.00 | 0.00 | 72 | 1019.4 | |
| 20260506220538 | 59 | 270 | 1.0 | 6.0 | 0.00 | 0.00 | 0.00 | 72 | 1019.5 |
| 20260506215518 | 59 | 0.0 | 3.0 | 0.00 | 0.00 | 0.00 | 72 | 1019.4 | |
| 20260506214517 | 59 | 270 | 1.0 | 4.0 | 0.00 | 0.00 | 0.00 | 73 | 1019.5 |
| 20260506213518 | 59 | 270 | 1.0 | 5.0 | 0.00 | 0.00 | 0.00 | 73 | 1019.5 |
| 20260506212537 | 58 | 0.0 | 1.0 | 0.00 | 0.00 | 0.00 | 77 | 1019.5 | |
| 20260506211518 | 58 | 293 | 1.0 | 4.0 | 0.00 | 0.00 | 0.00 | 77 | 1019.6 |
| 20260506210518 | 58 | 270 | 1.0 | 4.0 | 0.00 | 0.00 | 0.00 | 77 | 1019.6 |
| 20260506205518 | 58 | 0.0 | 2.0 | 0.00 | 0.00 | 0.00 | 78 | 1019.6 | |
| 20260506204518 | 57 | 0.0 | 3.0 | 0.00 | 0.00 | 0.00 | 79 | 1019.5 | |
| 20260506203517 | 57 | 113 | 1.0 | 4.0 | 0.00 | 0.00 | 0.00 | 79 | 1019.5 |
| 20260506202517 | 57 | 248 | 1.0 | 5.0 | 0.00 | 0.00 | 0.00 | 79 | 1019.4 |
| 20260506201517 | 57 | 0.0 | 3.0 | 0.00 | 0.00 | 0.00 | 80 | 1019.3 | |
| 20260506200539 | 57 | 315 | 1.0 | 4.0 | 0.00 | 0.00 | 0.00 | 80 | 1019.2 |
| 20260506195519 | 57 | 0.0 | 1.0 | 0.00 | 0.00 | 0.00 | 82 | 1019.3 | |
| 20260506194518 | 56 | 0.0 | 3.0 | 0.00 | 0.00 | 0.00 | 83 | 1019.2 | |
| 20260506193558 | 56 | 270 | 1.0 | 6.0 | 0.00 | 0.00 | 0.00 | 83 | 1019.4 |
| 20260506192518 | 56 | 113 | 1.0 | 4.0 | 0.00 | 0.00 | 0.00 | 83 | 1019.2 |
| 20260506191518 | 56 | 0.0 | 2.0 | 0.00 | 0.00 | 0.00 | 84 | 1019.3 | |
| 20260506190518 | 56 | 0.0 | 3.0 | 0.00 | 0.00 | 0.00 | 85 | 1019.2 | |
| 20260506185517 | 55 | 270 | 1.0 | 5.0 | 0.00 | 0.00 | 0.00 | 85 | 1019.3 |
| 20260506184518 | 55 | 0.0 | 4.0 | 0.00 | 0.00 | 0.00 | 85 | 1019.4 | |
| 20260506183517 | 55 | 0.0 | 2.0 | 0.00 | 0.00 | 0.00 | 85 | 1019.2 | |
| 20260506182537 | 55 | 0.0 | 2.0 | 0.00 | 0.00 | 0.00 | 86 | 1019.0 | |
| 20260506181517 | 55 | 0.0 | 3.0 | 0.00 | 0.00 | 0.00 | 86 | 1019.0 | |
| 20260506180640 | 55 | 0.0 | 2.0 | 0.00 | 0.00 | 0.00 | 86 | 1019.2 | |
| 20260506175518 | 54 | 0.0 | 3.0 | 0.00 | 0.00 | 0.00 | 86 | 1019.1 | |
| 20260506174517 | 54 | 0.0 | 1.0 | 0.00 | 0.00 | 0.00 | 86 | 1019.1 | |
| 20260506173517 | 54 | 0.0 | 3.0 | 0.00 | 0.00 | 0.00 | 87 | 1019.1 | |
| 20260506172517 | 54 | 0.0 | 2.0 | 0.00 | 0.00 | 0.00 | 87 | 1019.1 | |
| 20260506171517 | 53 | 270 | 1.0 | 6.0 | 0.00 | 0.00 | 0.00 | 87 | 1019.2 |
| 20260506170518 | 53 | 0.0 | 3.0 | 0.00 | 0.00 | 0.00 | 87 | 1019.1 | |
| 20260506165518 | 53 | 0.0 | 2.0 | 0.00 | 0.00 | 0.00 | 87 | 1019.0 | |
| 20260506164518 | 53 | 0.0 | 0.0 | 0.00 | 0.00 | 0.00 | 87 | 1018.8 | |
| 20260506163537 | 53 | 0.0 | 3.0 | 0.00 | 0.00 | 0.00 | 87 | 1018.8 | |
| 20260506162517 | 53 | 0.0 | 2.0 | 0.00 | 0.00 | 0.00 | 87 | 1018.7 | |
| 20260506161517 | 53 | 0.0 | 0.0 | 0.00 | 0.00 | 0.00 | 87 | 1018.8 | |
| 20260506160537 | 53 | 0.0 | 0.0 | 0.00 | 0.00 | 0.00 | 87 | 1018.8 | |
| 20260506155517 | 53 | 0.0 | 2.0 | 0.00 | 0.00 | 0.00 | 87 | 1018.7 | |
| 20260506154517 | 53 | 0.0 | 1.0 | 0.00 | 0.00 | 0.00 | 87 | 1018.7 | |
| 20260506153517 | 52 | 0.0 | 1.0 | 0.00 | 0.00 | 0.00 | 87 | 1018.7 | |
| 20260506152517 | 52 | 0.0 | 2.0 | 0.00 | 0.00 | 0.00 | 87 | 1018.8 | |
| 20260506151517 | 52 | 0.0 | 1.0 | 0.00 | 0.00 | 0.00 | 87 | 1018.7 | |
| 20260506150517 | 52 | 0.0 | 3.0 | 0.00 | 0.00 | 0.00 | 87 | 1018.9 | |
| 20260506145517 | 52 | 0.0 | 1.0 | 0.00 | 0.00 | 0.00 | 87 | 1018.8 | |
| 20260506144619 | 52 | 0.0 | 2.0 | 0.00 | 0.00 | 0.00 | 87 | 1018.5 | |
| 20260506143517 | 52 | 0.0 | 0.0 | 0.00 | 0.00 | 0.00 | 87 | 1018.2 | |
| 20260506142518 | 52 | 0.0 | 0.0 | 0.00 | 0.00 | 0.00 | 87 | 1018.7 | |
| 20260506141516 | 52 | 0.0 | 0.0 | 0.00 | 0.00 | 0.00 | 87 | 1018.4 | |
| 20260506140517 | 52 | 0.0 | 1.0 | 0.00 | 0.00 | 0.00 | 87 | 1018.5 | |
| 20260506135517 | 52 | 0.0 | 4.0 | 0.00 | 0.00 | 0.00 | 87 | 1018.6 | |
| 20260506134517 | 52 | 0.0 | 1.0 | 0.00 | 0.00 | 0.00 | 87 | 1018.5 | |
| 20260506133517 | 52 | 0.0 | 3.0 | 0.00 | 0.00 | 0.00 | 87 | 1018.3 | |
| 20260506132517 | 52 | 0.0 | 1.0 | 0.00 | 0.00 | 0.00 | 87 | 1018.3 | |
| 20260506131517 | 52 | 0.0 | 3.0 | 0.00 | 0.00 | 0.00 | 87 | 1018.0 | |
| 20260506130518 | 52 | 0.0 | 1.0 | 0.00 | 0.00 | 0.00 | 87 | 1018.0 | |
| 20260506125516 | 52 | 0.0 | 1.0 | 0.00 | 0.00 | 0.00 | 87 | 1018.1 | |
| 20260506124517 | 52 | 0.0 | 1.0 | 0.00 | 0.00 | 0.00 | 87 | 1017.9 | |
| 20260506123517 | 52 | 0.0 | 0.0 | 0.00 | 0.00 | 0.00 | 87 | 1017.9 | |
| 20260506122516 | 52 | 0.0 | 0.0 | 0.00 | 0.00 | 0.00 | 86 | 1017.9 | |
| 20260506121516 | 52 | 0.0 | 1.0 | 0.00 | 0.00 | 0.00 | 86 | 1017.7 | |
| 20260506120517 | 52 | 0.0 | 0.0 | 0.00 | 0.00 | 0.00 | 86 | 1017.5 | |
| 20260506115517 | 52 | 0.0 | 0.0 | 0.00 | 0.00 | 0.00 | 86 | 1017.3 | |
| 20260506114517 | 52 | 0.0 | 0.0 | 0.00 | 0.00 | 0.00 | 87 | 1017.5 | |
| 20260506113517 | 52 | 0.0 | 0.0 | 0.00 | 0.00 | 0.00 | 87 | 1017.6 | |
| 20260506112516 | 52 | 0.0 | 2.0 | 0.00 | 0.00 | 0.00 | 87 | 1017.6 | |
| 20260506111518 | 52 | 0.0 | 1.0 | 0.00 | 0.00 | 0.00 | 87 | 1017.4 | |
| 20260506110517 | 53 | 0.0 | 0.0 | 0.00 | 0.00 | 0.00 | 87 | 1017.5 | |
| 20260506105538 | 53 | 0.0 | 1.0 | 0.00 | 0.00 | 0.00 | 87 | 1017.5 | |
| 20260506104517 | 53 | 0.0 | 1.0 | 0.00 | 0.00 | 0.00 | 87 | 1017.2 | |
| 20260506103517 | 53 | 0.0 | 0.0 | 0.00 | 0.00 | 0.00 | 87 | 1017.1 | |
| 20260506102517 | 53 | 0.0 | 1.0 | 0.00 | 0.00 | 0.00 | 87 | 1017.0 | |
| 20260506101517 | 53 | 0.0 | 1.0 | 0.00 | 0.00 | 0.00 | 87 | 1016.9 | |
| 20260506100517 | 53 | 0.0 | 1.0 | 0.00 | 0.00 | 0.00 | 87 | 1016.7 | |
| 20260506095517 | 53 | 0.0 | 1.0 | 0.00 | 0.00 | 0.00 | 87 | 1016.6 | |
| 20260506094537 | 53 | 0.0 | 4.0 | 0.00 | 0.00 | 0.00 | 87 | 1016.6 | |
| 20260506093517 | 53 | 0.0 | 0.0 | 0.00 | 0.00 | 0.00 | 87 | 1016.5 | |
| 20260506092516 | 53 | 0.0 | 1.0 | 0.00 | 0.00 | 0.00 | 87 | 1016.5 | |
| 20260506091517 | 53 | 0.0 | 0.0 | 0.00 | 0.00 | 0.00 | 87 | 1016.5 | |
| 20260506090516 | 53 | 0.0 | 0.0 | 0.00 | 0.00 | 0.00 | 87 | 1016.4 | |
| 20260506085516 | 53 | 0.0 | 1.0 | 0.00 | 0.00 | 0.00 | 87 | 1016.3 | |
| 20260506083516 | 53 | 0.0 | 0.0 | 0.00 | 0.00 | 0.00 | 86 | 1016.4 | |
| 20260506082517 | 53 | 0.0 | 0.0 | 0.00 | 0.00 | 0.00 | 86 | 1016.4 | |
| 20260506081518 | 53 | 0.0 | 0.0 | 0.00 | 0.00 | 0.00 | 86 | 1016.3 | |
| 20260506080517 | 52 | 0.0 | 0.0 | 0.00 | 0.00 | 0.00 | 86 | 1016.3 | |
| 20260506072516 | 52 | 0.0 | 0.0 | 0.00 | 0.00 | 0.00 | 87 | 1015.8 | |
| 20260506071516 | 52 | 0.0 | 0.0 | 0.00 | 0.00 | 0.00 | 87 | 1015.8 | |
| 20260506070620 | 53 | 0.0 | 0.0 | 0.00 | 0.00 | 0.00 | 87 | 1015.7 | |
| 20260506061600 | 54 | 0.0 | 0.0 | 0.00 | 0.00 | 0.00 | 87 | 1015.2 | |
| 20260506060518 | 54 | 0.0 | 0.0 | 0.00 | 0.00 | 0.00 | 87 | 1015.1 |